Location: Cronhütte
(48.9135°N, 9.6869°E)
Time: 10:20:33
(UTC+00:00)

MOZ.5/SAFIR/RUBIN 5/SL-8 - Pass Details

Date: 23 May 2024
Orbit: 671 x 700 km, 98.3° (Epoch: 15 June)

Event Time Altitude Azimuth Distance (km) Brightness Sun altitude
Exits shadow 01:18:25 26° 202° (SSW) 1,374 4.7 -15.4°
Maximum altitude 01:20:45 46° 261° (W) 936 4.2 -15.3°
Drops below altitude 10° 01:25:19 10° 335° (NNW) 2,159 6.8 -14.9°
Sets 01:27:39 0° 341° (NNW) 3,076 7.7 -14.7°
